Hibbing, MN

6:15 AM CDT on October 01, 2016 (GMT -0500)
Chisholm-hibbing

Weather History for KHIB - January, 2013

Change the Weather History Date:

Wednesday, January 23, 2013

  Actual Average Record
Temperature  
Mean Temperature -8 °F -  
Max Temperature 1 °F 17 °F 43 °F (1981)
Min Temperature -20 °F -2 °F -29 °F (1963)
Degree Days  
Heating Degree Days 72    
Moisture  
Dew Point -15 °F    
Average Humidity 65    
Maximum Humidity 80    
Minimum Humidity 51    
Precipitation  
Precipitation 0.00 in - - ()
Sea Level Pressure  
Sea Level Pressure 30.28 in    
Wind  
Wind Speed 12 mph (NW)    
Max Wind Speed 29 mph    
Max Gust Speed 36 mph    
Visibility 5 miles    
Events Snow    
Averages and records for this station are not official NWS values.
T = Trace of Precipitation, MM = Missing Value Source: NWS Daily Summary

Daily Weather History Graph

Daily Weather History Graph

Search for Another Location

Airport or City:

Trip Planner

Search our weather history database for the weather conditions in past years. The results will help you decide how hot, cold, wet, or windy it might be!

Date:

Astronomy

Jan. 23, 2013 Rise Set
Actual Time 7:47 AM CST 4:59 PM CST
Civil Twilight 7:13 AM CST 5:33 PM CST
Nautical Twilight 6:36 AM CST 6:11 PM CST
Astronomical Twilight 5:59 AM CST 6:47 PM CST
Moon 2:07 PM CST (1/23) 5:02 AM CST (1/23)
Length of Visible Light 10h 20m
Length of Day
9h 12m
Waxing Gibbous, 89% of the Moon is Illuminated
Jan 23
Waxing Gibbous
Jan 26
Full
Feb 3
Last Quarter
Feb 10
New
Feb 17
First Quarter

Hourly Weather History & Observations

Time (CST) Temp. Windchill Dew Point Humidity Pressure Visibility Wind Dir Wind Speed Gust Speed Precip Events Conditions
12:53 AM -15.0 °F - -20.9 °F 75% 30.22 in 10.0 mi Calm Calm - N/A   Overcast
1:53 AM -16.1 °F - -22.0 °F 74% 30.21 in 10.0 mi Calm Calm - N/A   Overcast
2:53 AM -15.0 °F - -20.9 °F 75% 30.22 in 10.0 mi Calm Calm - N/A   Overcast
3:53 AM -11.9 °F - -18.0 °F 74% 30.19 in 5.0 mi Calm Calm - 0.00 in Snow Light Snow
4:53 AM -7.1 °F -19.9 °F -13.0 °F 75% 30.18 in 4.0 mi SSW 5.8 mph - 0.00 in Snow Light Snow
5:53 AM -6.0 °F -14.7 °F -11.9 °F 75% 30.16 in 7.0 mi SSW 3.5 mph - 0.00 in   Overcast
6:53 AM -5.1 °F - -9.9 °F 80% 30.16 in 3.0 mi Calm Calm - 0.00 in Snow Light Snow
7:53 AM -2.0 °F -10.1 °F -8.0 °F 76% 30.14 in 3.0 mi SW 3.5 mph - 0.00 in Snow Light Snow
8:53 AM 1.0 °F -14.0 °F -6.0 °F 72% 30.16 in 10.0 mi WNW 9.2 mph - 0.00 in   Scattered Clouds
9:22 AM 1.4 °F -18.2 °F -7.6 °F 66% 30.03 in 10.0 mi WNW 16.1 mph 21.9 mph N/A   Mostly Cloudy
9:40 AM 1.4 °F -20.5 °F -7.6 °F 66% 30.04 in 1.8 mi NW 20.7 mph 27.6 mph N/A Snow Blowing Snow
9:50 AM 1.4 °F -19.9 °F -7.6 °F 66% 30.05 in 2.0 mi NW 19.6 mph - N/A Snow Blowing Snow
9:53 AM -0.0 °F -22.4 °F -7.1 °F 72% 30.19 in 2.0 mi NW 20.7 mph 26.5 mph N/A Snow Blowing Snow
10:10 AM -0.4 °F -22.8 °F -7.6 °F 72% 30.06 in 1.5 mi NW 20.7 mph 28.8 mph N/A Snow Blowing Snow
10:53 AM -0.0 °F -23.3 °F -9.9 °F 63% 30.23 in 1.2 mi NW 23.0 mph 26.5 mph N/A Snow Blowing Snow
11:31 AM -2.2 °F -27.6 °F -11.2 °F 66% 30.11 in 0.8 mi NW 26.5 mph 33.4 mph 0.00 in   Overcast
11:53 AM -2.9 °F -28.1 °F -11.9 °F 65% 30.26 in 0.8 mi NNW 25.3 mph 33.4 mph 0.00 in   Overcast
12:04 PM -2.2 °F -26.7 °F -11.2 °F 66% 30.12 in 1.0 mi NW 24.2 mph 31.1 mph 0.00 in   Overcast
12:16 PM -2.2 °F -28.4 °F -13.0 °F 60% 30.13 in 0.5 mi NW 28.8 mph 35.7 mph 0.00 in   Overcast
12:39 PM -4.0 °F -28.6 °F -14.8 °F 60% 30.15 in 1.2 mi NW 23.0 mph 29.9 mph 0.00 in   Haze
12:53 PM -4.0 °F -30.0 °F -14.1 °F 62% 30.30 in 1.2 mi NW 26.5 mph 32.2 mph 0.00 in   Haze
12:58 PM -4.0 °F -28.1 °F -13.0 °F 65% 30.16 in 0.8 mi NNW 21.9 mph 32.2 mph 0.00 in Snow Light Snow
1:04 PM -4.0 °F -27.6 °F -13.0 °F 65% 30.16 in 1.0 mi NNW 20.7 mph 32.2 mph 0.00 in Snow Light Snow
1:17 PM -4.0 °F -28.6 °F -14.8 °F 60% 30.17 in 2.0 mi NNW 23.0 mph - 0.00 in   Overcast
1:27 PM -5.8 °F -31.0 °F -14.8 °F 65% 30.18 in 1.8 mi NNW 23.0 mph 27.6 mph 0.00 in   Overcast
1:53 PM -5.1 °F -30.0 °F -15.0 °F 62% 30.35 in 1.5 mi NNW 23.0 mph 31.1 mph 0.00 in   Haze
2:04 PM -5.8 °F -30.5 °F -16.6 °F 60% 30.21 in 3.0 mi NNW 21.9 mph 28.8 mph N/A   Haze
2:11 PM -5.8 °F -31.5 °F -16.6 °F 60% 30.21 in 2.0 mi NNW 24.2 mph 29.9 mph N/A   Haze
2:34 PM -5.8 °F -31.5 °F -16.6 °F 60% 30.24 in 3.0 mi NNW 24.2 mph 28.8 mph N/A   Haze
2:39 PM -5.8 °F -31.5 °F -16.6 °F 60% 30.24 in 2.5 mi NNW 24.2 mph 29.9 mph N/A   Haze
2:53 PM -5.1 °F -31.5 °F -17.0 °F 57% 30.40 in 1.5 mi NW 26.5 mph 32.2 mph N/A   Haze
3:05 PM -5.8 °F -31.0 °F -16.6 °F 60% 30.26 in 2.0 mi NNW 23.0 mph 29.9 mph N/A   Haze
3:14 PM -5.8 °F -29.4 °F -18.4 °F 55% 30.27 in 6.0 mi NNW 19.6 mph 26.5 mph N/A   Haze
3:53 PM -5.1 °F -27.2 °F -18.9 °F 51% 30.44 in 10.0 mi NNW 17.3 mph 25.3 mph N/A   Scattered Clouds
4:28 PM -5.8 °F -26.0 °F -18.4 °F 55% 30.34 in 9.0 mi NNW 13.8 mph 24.2 mph N/A   Mostly Cloudy
4:39 PM -7.6 °F -28.3 °F -18.4 °F 59% 30.34 in 10.0 mi NNW 13.8 mph - N/A   Scattered Clouds
4:53 PM -7.1 °F -27.6 °F -18.9 °F 56% 30.49 in 10.0 mi NNW 13.8 mph - N/A   Scattered Clouds
5:53 PM -9.0 °F -28.4 °F -20.0 °F 59% 30.54 in 10.0 mi NW 11.5 mph - N/A   Clear
6:14 PM -9.4 °F -31.4 °F -20.2 °F 59% 30.42 in 10.0 mi NW 15.0 mph - N/A   Mostly Cloudy
6:53 PM -9.9 °F -32.1 °F -20.0 °F 61% 30.59 in 10.0 mi NNW 15.0 mph - N/A   Scattered Clouds
7:53 PM -11.9 °F -29.9 °F -22.0 °F 61% 30.61 in 10.0 mi NNW 9.2 mph - N/A   Clear
8:53 PM -13.0 °F -30.0 °F -22.0 °F 64% 30.63 in 10.0 mi NNW 8.1 mph - N/A   Clear
9:53 PM -14.1 °F -29.9 °F -23.1 °F 64% 30.65 in 10.0 mi North 6.9 mph - N/A   Clear
10:53 PM -15.0 °F -29.3 °F -24.0 °F 64% 30.66 in 10.0 mi North 5.8 mph - N/A   Clear
11:53 PM -20.0 °F -37.1 °F -27.0 °F 70% 30.71 in 10.0 mi NNW 6.9 mph - N/A   Clear